ROMMA est une association bénévole à but non lucratif. Votre soutien est indispensable : ADHERER à ROMMA ou FAIRE un DON

Val-d'Arly - (73, Savoie)

Beaufortain (2050 m)   Longitude: 06° 35' 21" E   Latitude: 45° 46' 53" N Station romma n°118
 

Détail journalier du     <<     >>

Température Humidité Vent Dir Rafale Dir. rafale Ensol.
Heure (°C) (%) (km/h) (km/h) (min)
01:00 -6.6927---21---0
02:00 -6.7916---16---0
03:00 -6.7905---10---0
04:00 -6.7884---8---0
05:00 -7.1903---6---0
06:00 -7.1895---10---0
07:00 -7.2916---10---0
08:00 -6.78416---23---10
09:00 -6.68610---21---60
10:00 -6.4876---10---60
11:00 -4.3843---13---60
12:00 -5.0882---6---60
13:00 -5.3877---16---50
14:00 -4.7826---13---40
15:00 -4.7857---16---60
16:00 -5.2876---16---40
17:00 -5.7916---13---0
18:00 -5.48612---19---0
19:00 -5.4849---18---0
20:00 -5.4837---16---0
21:00 -4.97913---19---0
22:00 -4.97516---23---0
23:00 -4.06220---26---0
minuit -4.05820---27---0

Graphique du 13-11-2019

 

Serveur OMMA